Regional Weather Roundup
Issued by NWS

Home | Current Version | Previous Version | Graphics & Text | Print | Product List | Glossary On
Versions: 1 2 3 4 5 6 7 8 9 10 11 12 13 14 15 16 17 18 19 20 21 22 23 24 25 26 27 28 29 30 31 32 33 34 35 36 37 38 39 40 41 42 43 44 45 46 47 48 49 50
000
ASUS45 KBOI 282010
RWRID
WEATHER ROUNDUP FOR IDAHO
NATIONAL WEATHER SERVICE BOISE ID
100 PM MST SAT FEB 28 2015

NOTE: "FAIR" INDICATES FEW OR NO CLOUDS BELOW 12000 FEET
WITH NO SIGNIFICANT WEATHER AND/OR OBSTRUCTIONS TO VISIBILITY

IDZ012-014-282100-
SOUTHWEST IDAHO


CITY           SKY/WX    TMP DP  RH WIND       PRES   REMARKS
BOISE          CLOUDY    40  33  76 NW8       29.85S WCI  34
CALDWELL       CLOUDY    41  32  70 NW9       29.89R
MOUNTAIN HOME  CLOUDY    43  28  56 VRB7      29.84S
$$

IDZ016-017-282100-
SOUTHCENTRAL IDAHO


CITY           SKY/WX    TMP DP  RH WIND       PRES   REMARKS
BURLEY         CLOUDY    39  19  44 E12       29.76F WCI  32
JEROME         CLOUDY    42  14  32 NE17G26   29.78S
TWIN FALLS     CLOUDY    38  19  46 E15       29.78S WCI  29
$$

IDZ019>023-282100-
SOUTHEAST IDAHO


CITY           SKY/WX    TMP DP  RH WIND       PRES   REMARKS
IDAHO FALLS    SUNNY     41  13  31 N15G21    29.79F
POCATELLO      MOSUNNY   43  19  38 NE15G23   29.77F
REXBURG        MOSUNNY   38   9  30 NE12G18   29.79F WCI  30
$$

IDZ006-010-011-018-031-032-282100-
CENTRAL IDAHO MOUNTAINS


CITY           SKY/WX    TMP DP  RH WIND       PRES   REMARKS
MCCALL         MOSUNNY   40  20  44 NW12      29.80R WCI  33
HAILEY         PTSUNNY   41  14  33 E6        29.76
STANLEY          N/A     32  15  49 N6        29.77S WCI  26
SALMON         MOSUNNY   34  10  37 NE8       29.94S WCI  27
CHALLIS        SUNNY     36  16  44 N13       29.82S WCI  27
$$

IDZ002-004-006-007-026-282100-
NORTHERN IDAHO


CITY           SKY/WX    TMP DP  RH WIND       PRES   REMARKS
LEWISTON       SUNNY     44  15  31 CALM      30.07R
LOWELL           N/A     49  13  23 VRB6      30.04F
COEUR D`ALENE  SUNNY     37  10  32 N18       30.11F WCI  27
MULLAN PASS    SUNNY     22   3  44 CALM      29.95R
$$



USA.gov is the U.S. government's official web portal to all federal, state and local government web resources and services.